Regional Weather Roundup
Issued by NWS

Home | Current Version | Previous Version | Graphics & Text | Print | Product List | Glossary Off
Versions: 1 2 3 4 5 6 7 8 9 10 11 12 13 14 15 16 17 18 19 20 21 22 23 24 25 26 27 28 29 30 31 32 33 34 35 36 37 38 39 40 41 42 43 44 45 46 47 48 49 50

000
ASUS43 KTOP 040159
RWRKS

WEATHER ROUNDUP FOR KANSAS
NATIONAL WEATHER SERVICE GOODLAND KS
900 PM CDT SUN MAY 03 2015

NOTE:  "FAIR" INDICATES FEW OR NO CLOUDS BELOW 12,000 FEET WITH NO
SIGNIFICANT WEATHER AND/OR OBSTRUCTIONS TO VISIBILITY.

KSZ001>006-013>018-027>032-041>047-040300-
NORTHWEST KANSAS

CITY           SKY/WX    TMP DP  RH WIND       PRES   REMARKS
GOODLAND       CLOUDY    71  43  36 NE14      29.88R
HAYS           MOCLDY    73  48  40 SE10      29.80R
HILL CITY      MOCLDY    77  48  35 S5        29.78R
RUSSELL        PTCLDY    75  56  51 S13       29.78R
$$

KSZ061>065-074>080-084>089-040300-
SOUTHWEST KANSAS

CITY           SKY/WX    TMP DP  RH WIND       PRES   REMARKS
DODGE CITY     LGT RAIN  66  52  60 SW36G45   29.89R
ELKHART          N/A     65  47  52 E7          N/A
GARDEN CITY    CLOUDY    65  51  60 S20G31    29.83R
GREAT BEND     PTCLDY    77  54  44 S17       29.80R
LIBERAL        CLOUDY    72  48  43 E9        29.86F
$$

KSZ066>073-081>083-090>101-040300-
SOUTHEAST KANSAS

CITY           SKY/WX    TMP DP  RH WIND       PRES   REMARKS
CHANUTE        PTCLDY    70  58  65 S12       29.89R
COFFEYVILLE    PTCLDY    71  56  58 S8        29.90R
HUTCHINSON     CLEAR     73  60  63 S14       29.83R
MEDICINE LODGE   N/A     73  58  59 S7        29.86R
NEWTON         PTCLDY    72  54  53 S16G23    29.87R
PARSONS        PTCLDY    72  57  59 S7        29.91R
WICHITA INTL   PTCLDY    73  57  57 S15       29.85R
WICHITA JABRA  CLEAR     73  56  54 S15       29.86R
WICHITA MCCONL CLEAR     73  58  58 S18G26    29.86R
WINFIELD       CLEAR     71  56  58 S13       29.90R
$$

KSZ007>012-019>026-033>040-048>060-102>105-040300-
NORTHEAST KANSAS

CITY           SKY/WX    TMP DP  RH WIND       PRES   REMARKS
CONCORDIA      CLEAR     76  58  53 S18       29.76R
EMPORIA        CLEAR     71  56  58 S13       29.86R
LAWRENCE       MOCLDY    73  58  59 S12       29.85R
MANHATTAN      PTCLDY    77  56  48 S12       29.79R
OLATHE IND     MOCLDY    73  57  57 S14       29.88R
OLATHE EXE     PTCLDY    73  58  59 S13       29.87R
SALINA         MOCLDY    78  58  49 S14G24    29.80R
TOPEKA BILLARD PTCLDY    77  57  50 S10       29.83R
TOPEKA FORBES  PTCLDY    76  57  51 S17G23    29.83R
$$



USA.gov is the U.S. government's official web portal to all federal, state and local government web resources and services.